CW7137 Weather Reports


Display with metric or nautical units.
time (UTC)temp
F
wind
direction
speed
MPH
gust
MPH
rain 1hr
in
rain 24hr
in
rain mn
in
humidity
%
barometer
mb
20260506062100 54 22 2.0 6.0 0.00 0.02 0.02 90 1018.7
20260506061605 54 346 2.0 6.0 0.00 0.02 0.02 90 1018.7
20260506061059 54 30 1.0 4.0 0.00 0.02 0.02 91 1018.7
20260506060558 54 352 0.0 4.0 0.00 0.02 0.02 91 1018.7
20260506051058 54 337 2.0 5.0 0.00 0.02 0.02 91 1018.6
20260506050558 54 351 1.0 5.0 0.00 0.02 0.02 91 1018.6
20260506050103 54 333 2.0 4.0 0.00 0.02 0.02 91 1018.6
20260506045059 54 352 2.0 4.0 0.00 0.02 0.02 91 1018.5
20260506044611 54 11 2.0 4.0 0.00 0.02 0.02 91 1018.5
20260506044058 54 352 2.0 4.0 0.00 0.02 0.02 91 1018.5
20260506043602 54 317 1.0 4.0 0.00 0.02 0.02 91 1018.4
20260506043057 54 325 1.0 4.0 0.00 0.02 0.02 90 1018.4
20260506042558 54 5 2.0 4.0 0.00 0.02 0.02 90 1018.3
20260506042058 54 339 1.0 5.0 0.00 0.02 0.02 90 1018.3
20260506041609 54 350 2.0 5.0 0.00 0.02 0.02 90 1018.3
20260506041059 54 319 2.0 5.0 0.00 0.02 0.02 90 1018.3
20260506040557 54 329 2.0 5.0 0.00 0.02 0.02 90 1018.2
20260506035558 54 314 1.0 6.0 0.00 0.02 0.02 90 1018.0
20260506035058 54 331 1.0 8.0 0.00 0.02 0.02 90 1017.9
20260506034602 54 352 3.0 8.0 0.00 0.02 0.02 90 1017.8
20260506034057 54 13 3.0 5.0 0.00 0.02 0.02 90 1017.8
20260506033558 55 349 2.0 6.0 0.00 0.02 0.02 90 1017.8
20260506033058 55 352 2.0 8.0 0.00 0.02 0.02 90 1017.8
20260506032558 55 345 3.0 9.0 0.00 0.02 0.02 90 1017.7
20260506032058 55 337 4.0 9.0 0.00 0.02 0.02 90 1017.7
20260506031603 55 321 1.0 8.0 0.00 0.02 0.02 90 1017.6
20260506031058 55 9 3.0 9.0 0.00 0.02 0.02 90 1017.5
20260506030558 55 347 2.0 9.0 0.00 0.02 0.02 89 1017.5
20260506030100 55 360 5.0 9.0 0.00 0.02 0.02 89 1017.5
20260506025557 55 331 2.0 8.0 0.00 0.02 0.02 89 1017.4
20260506025058 55 0 2.0 8.0 0.00 0.02 0.02 89 1017.3
20260506024613 55 46 2.0 5.0 0.00 0.02 0.02 88 1017.3
20260506024058 56 13 2.0 8.0 0.00 0.02 0.02 88 1017.3
20260506023559 56 351 3.0 9.0 0.00 0.02 0.02 88 1017.2
20260506023058 56 290 3.0 9.0 0.00 0.02 0.02 88 1017.2
20260506022558 56 323 3.0 9.0 0.00 0.02 0.02 87 1017.1
20260506022058 56 335 3.0 7.0 0.00 0.02 0.02 87 1017.3
20260506021559 56 317 2.0 8.0 0.00 0.02 0.02 86 1017.2
20260506021102 56 318 3.0 8.0 0.00 0.02 0.02 86 1017.1
20260506020558 56 5 2.0 7.0 0.00 0.02 0.02 85 1017.2
20260506020123 56 303 3.0 7.0 0.00 0.02 0.02 85 1017.1
20260506015559 56 333 2.0 6.0 0.00 0.02 0.02 84 1017.0
20260506015058 57 345 4.0 6.0 0.00 0.02 0.02 85 1017.2
20260506014600 57 338 3.0 6.0 0.00 0.02 0.02 85 1017.1
20260506014100 57 0 2.0 8.0 0.00 0.02 0.02 85 1017.1
20260506013556 57 333 3.0 8.0 0.00 0.02 0.02 85 1017.0
20260506013057 57 319 2.0 8.0 0.00 0.02 0.02 84 1017.1
20260506012558 57 306 4.0 7.0 0.00 0.02 0.02 83 1017.0
20260506012102 57 321 3.0 6.0 0.00 0.02 0.02 84 1017.0
20260506011600 57 5 2.0 6.0 0.00 0.02 0.02 83 1017.0
20260506011058 57 9 3.0 8.0 0.00 0.02 0.02 83 1016.9
20260506010558 57 5 3.0 8.0 0.00 0.02 0.02 83 1017.0
20260506010058 58 35 3.0 8.0 0.00 0.02 0.02 83 1017.0
20260506005557 58 309 4.0 8.0 0.00 0.02 0.02 83 1017.0
20260506005057 58 40 3.0 8.0 0.00 0.02 0.02 83 1017.0
20260506004557 58 334 3.0 8.0 0.00 0.02 0.02 83 1017.0
20260506004058 58 338 4.0 9.0 0.00 0.02 0.02 82 1017.0
20260506003558 58 9 3.0 10.0 0.00 0.02 0.02 82 1017.0
20260506003058 58 349 6.0 10.0 0.00 0.02 0.02 82 1017.0
20260506002558 58 336 4.0 10.0 0.00 0.02 0.02 82 1016.9
20260506002058 58 360 5.0 10.0 0.00 0.02 0.02 81 1016.9
20260506001607 58 293 4.0 11.0 0.00 0.02 0.02 81 1016.9
20260506001058 58 21 5.0 11.0 0.00 0.02 0.02 81 1016.9
20260506000601 59 344 5.0 11.0 0.00 0.02 0.02 81 1016.8
20260506000122 59 12 4.0 10.0 0.00 0.02 0.02 80 1016.9
20260505235558 59 321 5.0 9.0 0.00 0.02 0.02 81 1017.0
20260505235058 59 341 4.0 9.0 0.00 0.02 0.02 81 1017.0
20260505234613 59 360 4.0 10.0 0.00 0.02 0.02 81 1017.0
20260505234058 59 306 4.0 10.0 0.00 0.02 0.02 79 1017.0
20260505233558 60 31 4.0 10.0 0.00 0.02 0.02 80 1017.0
20260505233056 60 333 3.0 10.0 0.00 0.02 0.02 81 1017.1
20260505232557 60 12 4.0 9.0 0.00 0.02 0.02 82 1017.1
20260505232058 60 284 3.0 9.0 0.00 0.02 0.02 81 1017.1
20260505231559 60 323 4.0 9.0 0.00 0.02 0.02 81 1017.2
20260505231058 60 352 4.0 9.0 0.00 0.02 0.02 81 1017.2
20260505230558 60 330 2.0 9.0 0.00 0.02 0.02 81 1017.2
20260505230058 60 306 4.0 11.0 0.00 0.02 0.02 80 1017.2
20260505225600 60 349 4.0 11.0 0.00 0.02 0.02 80 1017.3
20260505225058 61 270 5.0 11.0 0.00 0.02 0.02 79 1017.3
20260505224557 61 312 5.0 10.0 0.00 0.02 0.02 79 1017.2
20260505224102 61 314 4.0 10.0 0.00 0.02 0.02 79 1017.2
20260505223558 61 287 4.0 9.0 0.00 0.02 0.02 79 1017.2
20260505223104 62 321 4.0 10.0 0.00 0.02 0.02 77 1017.3
20260505222557 62 286 4.0 10.0 0.00 0.02 0.02 78 1017.3
20260505222057 62 296 4.0 10.0 0.00 0.02 0.02 74 1017.2
20260505221601 63 321 3.0 12.0 0.00 0.02 0.02 77 1017.2
20260505221059 63 298 4.0 12.0 0.00 0.02 0.02 76 1017.3
20260505220558 63 325 5.0 12.0 0.00 0.02 0.02 76 1017.3
20260505220107 63 296 4.0 11.0 0.00 0.02 0.02 76 1017.3
20260505215600 63 309 4.0 10.0 0.00 0.02 0.02 75 1017.2
20260505215058 63 278 5.0 12.0 0.00 0.02 0.02 75 1017.2
20260505214605 63 296 6.0 12.0 0.00 0.02 0.02 75 1017.2
20260505214058 63 296 6.0 12.0 0.00 0.02 0.02 74 1017.1
20260505213558 63 319 4.0 10.0 0.00 0.02 0.02 74 1017.1
20260505213058 63 309 4.0 10.0 0.00 0.02 0.02 75 1017.0
20260505212557 63 321 5.0 11.0 0.00 0.02 0.02 75 1016.9
20260505212057 62 320 4.0 11.0 0.00 0.02 0.02 75 1016.9
20260505211636 62 306 1.0 9.0 0.00 0.02 0.02 76 1017.0
20260505211101 62 323 5.0 9.0 0.00 0.02 0.02 75 1016.9
20260505210558 62 324 5.0 10.0 0.00 0.02 0.02 75 1016.9
20260505210056 62 295 4.0 10.0 0.00 0.02 0.02 75 1016.8
20260505205558 62 265 4.0 10.0 0.00 0.02 0.02 75 1016.8
20260505205058 62 304 6.0 10.0 0.00 0.02 0.02 75 1016.8
20260505204605 62 293 5.0 11.0 0.00 0.02 0.02 76 1016.9
20260505204058 62 5 6.0 11.0 0.00 0.02 0.02 73 1016.8
20260505203558 62 324 3.0 10.0 0.00 0.02 0.02 75 1016.8
20260505203057 62 294 5.0 10.0 0.00 0.02 0.02 75 1016.7
20260505202601 63 325 5.0 10.0 0.00 0.02 0.02 74 1016.8
20260505202058 63 319 5.0 11.0 0.00 0.02 0.02 74 1016.9
20260505201559 63 323 4.0 11.0 0.00 0.02 0.02 76 1016.8
20260505201058 63 319 4.0 10.0 0.00 0.02 0.02 75 1016.8
20260505200558 63 268 2.0 8.0 0.00 0.02 0.02 76 1016.8
20260505200058 63 317 3.0 8.0 0.00 0.02 0.02 77 1016.8
20260505195558 63 340 3.0 8.0 0.00 0.02 0.02 77 1016.7
20260505195057 63 44 3.0 8.0 0.00 0.02 0.02 75 1016.7
20260505194557 63 312 3.0 9.0 0.00 0.02 0.02 74 1016.6
20260505194057 63 352 3.0 9.0 0.00 0.02 0.02 80 1016.7
20260505193558 62 331 3.0 9.0 0.00 0.02 0.02 79 1016.6
20260505193057 61 321 2.0 7.0 0.00 0.02 0.02 85 1016.7
20260505192600 60 318 1.0 4.0 0.00 0.02 0.02 82 1016.8
20260505192058 60 0 1.0 5.0 0.00 0.02 0.02 84 1016.8
20260505191604 60 0 1.0 5.0 0.00 0.02 0.02 82 1016.8
20260505191058 60 30 2.0 6.0 0.00 0.02 0.02 82 1016.8
20260505190601 60 302 1.0 9.0 0.00 0.02 0.02 83 1017.0
20260505190106 59 303 1.0 9.0 0.00 0.02 0.02 86 1017.1
20260505185558 59 350 3.0 9.0 0.00 0.02 0.02 86 1016.9
20260505185058 59 350 3.0 7.0 0.00 0.02 0.02 87 1016.9
20260505184556 58 314 1.0 10.0 0.00 0.02 0.02 87 1016.8
20260505184058 58 286 2.0 10.0 0.00 0.02 0.02 88 1016.9
20260505183557 58 308 2.0 6.0 0.00 0.02 0.02 90 1017.0
20260505183056 58 239 2.0 6.0 0.00 0.02 0.02 90 1017.0
20260505182558 58 308 2.0 4.0 0.00 0.02 0.02 91 1017.0
20260505182057 57 286 1.0 4.0 0.00 0.02 0.02 92 1017.0
20260505181640 57 301 1.0 4.0 0.00 0.02 0.02 93 1016.9
20260505181057 57 248 1.0 3.0 0.00 0.02 0.02 93 1016.8
20260505180558 57 227 1.0 3.0 0.00 0.02 0.02 93 1016.8
20260505180106 56 298 1.0 3.0 0.00 0.02 0.02 93 1016.7
20260505175558 56 266 0.0 3.0 0.01 0.02 0.02 93 1016.8
20260505175058 56 0 1.0 3.0 0.01 0.02 0.02 94 1016.8
20260505174558 56 302 1.0 4.0 0.01 0.02 0.02 93 1016.8
20260505174058 55 0 0.0 4.0 0.01 0.02 0.02 93 1016.8
20260505173558 55 301 1.0 4.0 0.01 0.02 0.02 93 1016.8
20260505173056 55 308 0.0 3.0 0.01 0.02 0.02 94 1016.7
20260505172557 55 288 1.0 3.0 0.01 0.02 0.02 94 1016.7
20260505172057 55 209 0.0 2.0 0.01 0.02 0.02 93 1016.6
20260505171604 55 209 0.0 2.0 0.01 0.02 0.02 95 1016.6
20260505171057 55 0 0.0 3.0 0.01 0.02 0.02 95 1016.6
20260505170558 55 209 1.0 3.0 0.01 0.02 0.02 95 1016.6
20260505170055 55 209 0.0 3.0 0.01 0.02 0.02 95 1016.6
20260505165559 55 246 1.0 3.0 0.00 0.01 0.01 95 1016.6
20260505165059 54 215 0.0 2.0 0.00 0.01 0.01 94 1016.5
20260505164557 54 192 0.0 3.0 0.00 0.01 0.01 94 1016.6
20260505164059 54 0 1.0 3.0 0.00 0.01 0.01 94 1016.6
20260505163601 54 192 1.0 3.0 0.00 0.01 0.01 94 1016.5
20260505163058 54 0 0.0 2.0 0.00 0.01 0.01 94 1016.5
20260505162558 54 323 0.0 2.0 0.00 0.01 0.01 94 1016.4
20260505162100 54 0 0.0 2.0 0.00 0.01 0.01 94 1016.4
20260505161559 54 0 0.0 2.0 0.00 0.01 0.01 94 1016.5
20260505161059 54 0 0.0 0.0 0.00 0.01 0.01 95 1016.4
20260505160559 54 0 0.0 0.0 0.00 0.01 0.01 95 1016.4
20260505153059 54 0 0.0 0.0 0.00 0.01 0.01 95 1016.4
20260505152558 54 0 0.0 0.0 0.00 0.01 0.01 95 1016.3
20260505152058 54 0 0.0 2.0 0.00 0.01 0.01 95 1016.2
20260505151602 54 0 0.0 2.0 0.00 0.01 0.01 95 1016.3
20260505151101 53 163 0.0 1.0 0.00 0.01 0.01 95 1016.2
20260505150558 53 169 0.0 1.0 0.00 0.01 0.01 95 1016.3
20260505140558 53 203 1.0 3.0 0.00 0.01 0.01 95 1015.9
20260505140108 53 206 1.0 3.0 0.00 0.01 0.01 95 1015.9
20260505130110 53 167 1.0 3.0 0.01 0.01 0.01 94 1015.5
20260505124624 53 0 0.0 0.0 0.01 0.01 0.01 94 1015.4
20260505124058 53 0 0.0 0.0 0.01 0.01 0.01 94 1015.4
20260505123557 53 0 0.0 0.0 0.01 0.01 0.01 94 1015.4
20260505123117 53 0 0.0 0.0 0.01 0.01 0.01 94 1015.4
20260505122557 53 0 0.0 0.0 0.00 0.00 0.00 94 1015.3
20260505122059 53 0 0.0 0.0 0.00 0.00 0.00 94 1015.3
20260505121600 53 0 0.0 0.0 0.00 0.00 0.00 94 1015.3
20260505121059 53 0 0.0 0.0 0.00 0.00 0.00 94 1015.1
20260505120557 53 0 0.0 0.0 0.00 0.00 0.00 94 1015.1
20260505120124 53 0 0.0 0.0 0.00 0.00 0.00 94 1015.2
20260505115559 53 0 0.0 0.0 0.00 0.00 0.00 94 1015.2
20260505115059 53 0 0.0 0.0 0.00 0.00 0.00 94 1015.1
20260505114559 53 0 0.0 0.0 0.00 0.00 0.00 94 1015.2
20260505114059 53 0 0.0 0.0 0.00 0.00 0.00 94 1015.1
20260505113603 53 0 0.0 0.0 0.00 0.00 0.00 94 1015.1
20260505113104 53 0 0.0 0.0 0.00 0.00 0.00 94 1015.1
20260505112559 53 0 0.0 0.0 0.00 0.00 0.00 94 1015.3
20260505112059 53 0 0.0 0.0 0.00 0.00 0.00 94 1015.1
20260505111602 53 0 0.0 0.0 0.00 0.00 0.00 94 1015.1
20260505111059 53 0 0.0 0.0 0.00 0.00 0.00 94 1015.2
20260505110559 53 0 0.0 0.0 0.00 0.00 0.00 94 1015.2
20260505110112 53 0 0.0 0.0 0.00 0.00 0.00 94 1015.1
20260505102059 53 0 0.0 0.0 0.00 0.00 0.00 93 1015.3
20260505101603 53 0 0.0 0.0 0.00 0.00 0.00 93 1015.2
20260505101059 53 0 0.0 0.0 0.00 0.00 0.00 93 1015.2
20260505100559 53 0 0.0 0.0 0.00 0.00 0.00 93 1015.3
20260505100101 53 0 0.0 0.0 0.00 0.00 0.00 93 1015.3
20260505095558 53 0 0.0 0.0 0.00 0.03 0.00 93 1015.3
20260505095100 53 0 0.0 0.0 0.00 0.03 0.00 93 1015.3
20260505094559 53 0 0.0 0.0 0.00 0.03 0.00 93 1015.3
20260505094059 53 0 0.0 0.0 0.00 0.03 0.00 93 1015.4
20260505093559 53 0 0.0 0.0 0.00 0.03 0.00 93 1015.4
20260505093058 53 0 0.0 0.0 0.00 0.03 0.00 93 1015.5
20260505092600 53 0 0.0 0.0 0.00 0.03 0.00 93 1015.5
20260505092100 53 0 0.0 0.0 0.00 0.03 0.00 93 1015.6
20260505091600 53 0 0.0 0.0 0.00 0.03 0.00 93 1015.6
20260505091100 53 0 0.0 0.0 0.00 0.03 0.00 93 1015.7
20260505090559 53 0 0.0 0.0 0.00 0.03 0.00 93 1015.7
20260505090059 53 0 0.0 0.0 0.00 0.03 0.00 93 1015.8
20260505085559 53 0 0.0 0.0 0.00 0.05 0.00 93 1015.7
20260505085059 53 0 0.0 0.0 0.00 0.05 0.00 93 1015.7
20260505084605 53 0 0.0 0.0 0.00 0.05 0.00 93 1015.8
20260505084057 53 0 0.0 0.0 0.00 0.05 0.00 93 1015.7
20260505083557 53 0 0.0 0.0 0.00 0.05 0.00 93 1015.7
20260505083109 53 0 0.0 0.0 0.00 0.05 0.00 93 1015.9
20260505082605 53 0 0.0 0.0 0.00 0.05 0.00 93 1015.9
20260505082058 53 0 0.0 0.0 0.00 0.05 0.00 93 1015.9
20260505081556 53 0 0.0 0.0 0.00 0.05 0.00 93 1016.0
20260505081058 53 0 0.0 0.0 0.00 0.05 0.00 93 1016.0
20260505080557 53 0 0.0 3.0 0.00 0.05 0.00 93 1015.9
20260505080104 53 0 0.0 3.0 0.00 0.05 0.00 93 1015.9
20260505075557 53 167 0.0 3.0 0.00 0.08 0.00 93 1016.0
20260505075100 53 0 0.0 3.0 0.00 0.08 0.00 93 1015.9
20260505074558 53 0 0.0 1.0 0.00 0.08 0.00 92 1015.9
20260505074058 53 0 0.0 1.0 0.00 0.08 0.00 92 1015.9
20260505073559 53 0 0.0 0.0 0.00 0.08 0.00 92 1015.9
20260505073103 53 0 0.0 0.0 0.00 0.08 0.00 92 1016.0
20260505072557 53 0 0.0 0.0 0.00 0.08 0.00 92 1016.1
20260505072058 53 0 0.0 1.0 0.00 0.08 0.00 92 1016.0
20260505071557 53 0 0.0 1.0 0.00 0.08 0.00 92 1016.0
20260505071058 53 0 0.0 1.0 0.00 0.08 0.00 92 1016.0
20260505070558 54 0 0.0 3.0 0.00 0.08 0.00 92 1016.0
20260505070105 54 167 0.0 3.0 0.00 0.08 0.00 92 1015.9